| time (UTC) | temp C | wind direction | speed KPH | gust KPH | rain 1hr cm | rain 24hr cm | rain mn cm | humidity % | barometer mb |
| 20260508134132 | 17 | 285 | 0.0 | 8.0 | 0.00 | 0.00 | 0.00 | 25 | 1004.0 |
| 20260508133617 | 17 | 306 | 0.0 | 4.8 | 0.00 | 0.00 | 0.00 | 25 | 1004.0 |
| 20260508132632 | 17 | 296 | 3.2 | 4.8 | 0.00 | 0.00 | 0.00 | 26 | 1004.0 |
| 20260508130618 | 17 | 270 | 0.0 | 4.8 | 0.00 | 0.00 | 0.00 | 26 | 1004.0 |
| 20260508124132 | 17 | 315 | 0.0 | 0.0 | 0.00 | 0.00 | 0.00 | 26 | 1004.0 |
| 20260508123618 | 17 | 315 | 0.0 | 4.8 | 0.00 | 0.00 | 0.00 | 26 | 1004.0 |
| 20260508122632 | 17 | 315 | 0.0 | 8.0 | 0.00 | 0.00 | 0.00 | 26 | 1004.0 |
| 20260508121131 | 17 | 296 | 3.2 | 9.7 | 0.00 | 0.00 | 0.00 | 27 | 1003.0 |
| 20260508120618 | 17 | 304 | 8.0 | 12.9 | 0.00 | 0.00 | 0.00 | 28 | 1003.0 |
| 20260508115631 | 17 | 270 | 0.0 | 3.2 | 0.00 | 0.00 | 0.00 | 29 | 1003.0 |
| 20260508114132 | 17 | 270 | 0.0 | 8.0 | 0.00 | 0.00 | 0.00 | 31 | 1003.0 |
| 20260508113618 | 17 | 270 | 3.2 | 3.2 | 0.00 | 0.00 | 0.00 | 31 | 1002.0 |
| 20260508111131 | 18 | 316 | 0.0 | 4.8 | 0.00 | 0.00 | 0.00 | 33 | 1002.0 |
| 20260508110617 | 18 | 304 | 4.8 | 3.2 | 0.00 | 0.00 | 0.00 | 33 | 1001.0 |
| 20260508105631 | 18 | 270 | 0.0 | 4.8 | 0.00 | 0.00 | 0.00 | 33 | 1001.0 |
| 20260508104131 | 18 | 270 | 0.0 | 8.0 | 0.00 | 0.00 | 0.00 | 33 | 1001.0 |
| 20260508103617 | 18 | 270 | 0.0 | 3.2 | 0.00 | 0.00 | 0.00 | 33 | 1001.0 |
| 20260508102632 | 19 | 225 | 0.0 | 3.2 | 0.00 | 0.00 | 0.00 | 33 | 1001.0 |
| 20260508101132 | 19 | 270 | 3.2 | 4.8 | 0.00 | 0.00 | 0.00 | 34 | 1000.0 |
| 20260508100617 | 19 | 225 | 0.0 | 0.0 | 0.00 | 0.00 | 0.00 | 34 | 1000.0 |
| 20260508095632 | 20 | 280 | 3.2 | 4.8 | 0.00 | 0.00 | 0.00 | 35 | 1000.0 |
| 20260508093616 | 20 | 225 | 0.0 | 0.0 | 0.00 | 0.00 | 0.00 | 38 | 999.0 |
| 20260508092631 | 20 | 225 | 0.0 | 3.2 | 0.00 | 0.00 | 0.00 | 38 | 999.0 |
| 20260508091131 | 20 | 270 | 0.0 | 3.2 | 0.00 | 0.00 | 0.00 | 37 | 999.0 |
| 20260508090618 | 20 | 270 | 0.0 | 4.8 | 0.00 | 0.00 | 0.00 | 37 | 999.0 |
| 20260508085631 | 21 | 270 | 3.2 | 9.7 | 0.00 | 0.00 | 0.00 | 35 | 999.0 |
| 20260508084132 | 22 | 270 | 0.0 | 3.2 | 0.00 | 0.00 | 0.00 | 34 | 998.0 |
| 20260508083618 | 22 | 294 | 4.8 | 8.0 | 0.00 | 0.00 | 0.00 | 30 | 998.0 |
| 20260508082631 | 22 | 115 | 4.8 | 4.8 | 0.00 | 0.00 | 0.00 | 28 | 998.0 |
| 20260508081131 | 23 | 151 | 8.0 | 8.0 | 0.00 | 0.00 | 0.00 | 27 | 998.0 |
| 20260508080617 | 23 | 245 | 3.2 | 4.8 | 0.00 | 0.00 | 0.00 | 27 | 998.0 |
| 20260508075631 | 23 | 280 | 8.0 | 9.7 | 0.00 | 0.00 | 0.00 | 27 | 998.0 |
| 20260508074132 | 23 | 236 | 1.6 | 3.2 | 0.00 | 0.00 | 0.00 | 26 | 997.0 |
| 20260508073617 | 23 | 244 | 4.8 | 8.0 | 0.00 | 0.00 | 0.00 | 26 | 997.0 |
| 20260508072630 | 23 | 280 | 4.8 | 8.0 | 0.00 | 0.00 | 0.00 | 24 | 997.0 |
| 20260508071132 | 24 | 242 | 4.8 | 8.0 | 0.00 | 0.00 | 0.00 | 24 | 997.0 |
| 20260508070617 | 23 | 160 | 3.2 | 9.7 | 0.00 | 0.00 | 0.00 | 24 | 997.0 |
| 20260508065632 | 23 | 164 | 8.0 | 9.7 | 0.00 | 0.00 | 0.00 | 25 | 997.0 |
| 20260508063617 | 23 | 217 | 8.0 | 9.7 | 0.00 | 0.00 | 0.00 | 25 | 997.0 |
| 20260508062631 | 23 | 202 | 8.0 | 4.8 | 0.00 | 0.00 | 0.00 | 25 | 997.0 |
| 20260508061131 | 23 | 284 | 8.0 | 14.5 | 0.00 | 0.00 | 0.00 | 25 | 997.0 |
| 20260508060616 | 23 | 207 | 9.7 | 16.1 | 0.00 | 0.00 | 0.00 | 25 | 997.0 |
| 20260508055631 | 23 | 245 | 8.0 | 9.7 | 0.00 | 0.00 | 0.00 | 25 | 997.0 |
| 20260508054131 | 23 | 348 | 4.8 | 11.3 | 0.00 | 0.00 | 0.00 | 26 | 997.2 |
| 20260508053616 | 23 | 107 | 8.0 | 12.9 | 0.00 | 0.00 | 0.00 | 25 | 997.0 |
| 20260508051131 | 25 | 260 | 12.9 | 9.7 | 0.00 | 0.00 | 0.00 | 23 | 998.0 |
| 20260508050618 | 25 | 181 | 4.8 | 9.7 | 0.00 | 0.00 | 0.00 | 24 | 998.0 |
| 20260508045630 | 24 | 176 | 9.7 | 11.3 | 0.00 | 0.00 | 0.00 | 27 | 998.0 |
| 20260508044131 | 25 | 215 | 4.8 | 9.7 | 0.00 | 0.00 | 0.00 | 30 | 998.0 |
| 20260508043617 | 25 | 235 | 4.8 | 11.3 | 0.00 | 0.00 | 0.00 | 30 | 998.0 |
| 20260508042631 | 25 | 202 | 4.8 | 9.7 | 0.00 | 0.00 | 0.00 | 30 | 998.0 |
| 20260508041131 | 25 | 186 | 9.7 | 9.7 | 0.00 | 0.00 | 0.00 | 30 | 998.0 |
| 20260508040617 | 24 | 232 | 4.8 | 8.0 | 0.00 | 0.00 | 0.00 | 31 | 998.0 |
| 20260508035630 | 24 | 199 | 8.0 | 8.0 | 0.00 | 0.00 | 0.00 | 31 | 998.0 |
| 20260508034130 | 23 | 241 | 4.8 | 8.0 | 0.00 | 0.00 | 0.00 | 33 | 998.0 |
| 20260508033617 | 23 | 295 | 8.0 | 9.7 | 0.00 | 0.00 | 0.00 | 33 | 998.0 |
| 20260508032630 | 23 | 144 | 8.0 | 8.0 | 0.00 | 0.00 | 0.00 | 32 | 998.0 |
| 20260508030616 | 24 | 268 | 4.8 | 9.7 | 0.00 | 0.00 | 0.00 | 32 | 998.0 |
| 20260508025631 | 24 | 273 | 4.8 | 9.7 | 0.00 | 0.00 | 0.00 | 32 | 998.0 |
| 20260508023617 | 23 | 152 | 8.0 | 9.7 | 0.00 | 0.00 | 0.00 | 32 | 998.0 |
| 20260508022630 | 23 | 254 | 4.8 | 9.7 | 0.00 | 0.00 | 0.00 | 32 | 998.0 |
| 20260508021130 | 23 | 281 | 4.8 | 9.7 | 0.00 | 0.00 | 0.00 | 33 | 999.0 |
| 20260508020617 | 23 | 243 | 8.0 | 8.0 | 0.00 | 0.00 | 0.00 | 33 | 999.0 |
| 20260508015631 | 23 | 96 | 4.8 | 8.0 | 0.00 | 0.00 | 0.00 | 34 | 999.0 |
| 20260508014130 | 23 | 180 | 8.0 | 8.0 | 0.00 | 0.00 | 0.00 | 34 | 999.0 |
| 20260508013616 | 23 | 192 | 3.2 | 9.7 | 0.00 | 0.00 | 0.00 | 34 | 999.0 |
| 20260508012632 | 23 | 161 | 8.0 | 4.8 | 0.00 | 0.00 | 0.00 | 34 | 999.0 |
| 20260508011131 | 23 | 175 | 1.6 | 4.8 | 0.00 | 0.00 | 0.00 | 35 | 999.0 |
| 20260508010616 | 23 | 163 | 4.8 | 9.7 | 0.00 | 0.00 | 0.00 | 35 | 999.0 |
| 20260508005630 | 23 | 201 | 4.8 | 8.0 | 0.00 | 0.00 | 0.00 | 36 | 999.0 |
| 20260508004131 | 23 | 162 | 1.6 | 4.8 | 0.00 | 0.00 | 0.00 | 41 | 999.0 |
| 20260508003616 | 23 | 264 | 4.8 | 3.2 | 0.00 | 0.00 | 0.00 | 41 | 999.0 |
| 20260508002631 | 23 | 135 | 1.6 | 3.2 | 0.00 | 0.00 | 0.00 | 43 | 999.0 |
| 20260508001130 | 22 | 141 | 1.6 | 8.0 | 0.00 | 0.00 | 0.00 | 50 | 999.0 |
| 20260508000615 | 22 | 270 | 1.6 | 3.2 | 0.00 | 0.00 | 0.00 | 53 | 999.0 |
| 20260507235629 | 22 | 212 | 3.2 | 4.8 | 0.00 | 0.00 | 0.00 | 56 | 999.0 |
| 20260507234130 | 22 | 179 | 4.8 | 8.0 | 0.00 | 0.00 | 0.00 | 56 | 999.0 |
| 20260507233617 | 22 | 304 | 8.0 | 12.9 | 0.00 | 0.00 | 0.00 | 57 | 999.0 |
| 20260507232630 | 22 | 273 | 3.2 | 8.0 | 0.00 | 0.00 | 0.00 | 57 | 999.0 |
| 20260507231130 | 21 | 225 | 0.0 | 3.2 | 0.00 | 0.00 | 0.00 | 57 | 999.0 |
| 20260507230617 | 21 | 225 | 1.6 | 3.2 | 0.00 | 0.00 | 0.00 | 57 | 1000.0 |
| 20260507225631 | 21 | 135 | 0.0 | 0.0 | 0.00 | 0.00 | 0.00 | 57 | 1000.0 |
| 20260507223616 | 21 | 135 | 0.0 | 0.0 | 0.00 | 0.00 | 0.00 | 55 | 999.0 |
| 20260507222629 | 21 | 135 | 0.0 | 0.0 | 0.00 | 0.00 | 0.00 | 57 | 999.0 |
| 20260507221129 | 21 | 135 | 0.0 | 0.0 | 0.00 | 0.00 | 0.00 | 60 | 999.0 |
| 20260507220616 | 21 | 135 | 0.0 | 0.0 | 0.00 | 0.00 | 0.00 | 61 | 999.0 |
| 20260507215630 | 21 | 135 | 0.0 | 0.0 | 0.00 | 0.00 | 0.00 | 62 | 999.0 |
| 20260507214131 | 20 | 135 | 0.0 | 0.0 | 0.00 | 0.00 | 0.00 | 63 | 1000.0 |
| 20260507213616 | 20 | 135 | 0.0 | 0.0 | 0.00 | 0.00 | 0.00 | 63 | 1000.0 |
| 20260507212631 | 20 | 135 | 0.0 | 0.0 | 0.00 | 0.00 | 0.00 | 64 | 1000.0 |
| 20260507211131 | 20 | 135 | 0.0 | 4.8 | 0.00 | 0.00 | 0.00 | 64 | 999.0 |
| 20260507210616 | 20 | 135 | 0.0 | 0.0 | 0.00 | 0.00 | 0.00 | 65 | 1000.0 |
| 20260507205630 | 20 | 135 | 0.0 | 3.2 | 0.00 | 0.00 | 0.00 | 65 | 1000.0 |
| 20260507204131 | 20 | 135 | 0.0 | 3.2 | 0.00 | 0.00 | 0.00 | 66 | 1000.0 |
| 20260507203615 | 20 | 135 | 1.6 | 9.7 | 0.00 | 0.00 | 0.00 | 66 | 1000.0 |
| 20260507202629 | 20 | 135 | 0.0 | 4.8 | 0.00 | 0.00 | 0.00 | 66 | 1000.0 |
| 20260507201129 | 20 | 135 | 0.0 | 9.7 | 0.00 | 0.00 | 0.00 | 65 | 1000.0 |
| 20260507200616 | 20 | 135 | 1.6 | 8.0 | 0.00 | 0.00 | 0.00 | 65 | 1000.0 |
| 20260507195629 | 20 | 135 | 0.0 | 0.0 | 0.00 | 0.00 | 0.00 | 65 | 1000.0 |
| 20260507194131 | 20 | 135 | 0.0 | 3.2 | 0.00 | 0.00 | 0.00 | 65 | 1000.0 |
| 20260507193616 | 20 | 135 | 0.0 | 0.0 | 0.00 | 0.00 | 0.00 | 66 | 1000.0 |
| 20260507192630 | 20 | 135 | 0.0 | 8.0 | 0.00 | 0.00 | 0.00 | 67 | 1000.0 |
| 20260507191130 | 20 | 135 | 0.0 | 0.0 | 0.00 | 0.00 | 0.00 | 67 | 1000.0 |
| 20260507190615 | 20 | 135 | 0.0 | 4.8 | 0.00 | 0.00 | 0.00 | 67 | 1000.0 |
| 20260507185630 | 20 | 135 | 1.6 | 3.2 | 0.00 | 0.00 | 0.00 | 67 | 1000.0 |
| 20260507184132 | 20 | 135 | 0.0 | 9.7 | 0.00 | 0.00 | 0.00 | 65 | 1000.0 |
| 20260507183619 | 20 | 135 | 0.0 | 8.0 | 0.00 | 0.00 | 0.00 | 65 | 1000.0 |
| 20260507182633 | 20 | 135 | 0.0 | 0.0 | 0.00 | 0.00 | 0.00 | 65 | 1000.0 |
| 20260507180619 | 20 | 135 | 3.2 | 8.0 | 0.00 | 0.00 | 0.00 | 66 | 1000.0 |
| 20260507175632 | 20 | 180 | 0.0 | 3.2 | 0.00 | 0.00 | 0.00 | 67 | 1000.0 |
| 20260507174131 | 20 | 180 | 0.0 | 0.0 | 0.00 | 0.00 | 0.00 | 68 | 1000.0 |
| 20260507173619 | 20 | 180 | 0.0 | 0.0 | 0.00 | 0.00 | 0.00 | 68 | 1000.0 |
| 20260507172631 | 20 | 180 | 0.0 | 3.2 | 0.00 | 0.00 | 0.00 | 69 | 1000.0 |
| 20260507171131 | 20 | 180 | 0.0 | 0.0 | 0.00 | 0.00 | 0.00 | 70 | 1000.0 |
| 20260507170618 | 19 | 180 | 0.0 | 0.0 | 0.00 | 0.00 | 0.00 | 71 | 1000.0 |
| 20260507165632 | 19 | 180 | 0.0 | 0.0 | 0.00 | 0.00 | 0.00 | 71 | 1000.0 |
| 20260507164131 | 19 | 180 | 0.0 | 0.0 | 0.00 | 0.00 | 0.00 | 72 | 1000.0 |
| 20260507163618 | 19 | 180 | 0.0 | 0.0 | 0.00 | 0.00 | 0.00 | 72 | 1001.0 |
| 20260507162633 | 19 | 180 | 0.0 | 0.0 | 0.00 | 0.00 | 0.00 | 71 | 1001.0 |
| 20260507161133 | 19 | 180 | 0.0 | 0.0 | 0.00 | 0.00 | 0.00 | 72 | 1001.0 |
| 20260507160618 | 19 | 180 | 0.0 | 0.0 | 0.00 | 0.00 | 0.00 | 72 | 1001.0 |
| 20260507155633 | 19 | 180 | 0.0 | 0.0 | 0.00 | 0.00 | 0.00 | 72 | 1001.0 |
| 20260507154132 | 19 | 180 | 1.6 | 3.2 | 0.00 | 0.00 | 0.00 | 70 | 1002.0 |
| 20260507153618 | 19 | 180 | 0.0 | 0.0 | 0.00 | 0.00 | 0.00 | 70 | 1001.0 |
| 20260507152633 | 20 | 180 | 0.0 | 0.0 | 0.00 | 0.00 | 0.00 | 69 | 1001.0 |
| 20260507151132 | 20 | 180 | 0.0 | 0.0 | 0.00 | 0.00 | 0.00 | 68 | 1002.0 |
| 20260507150617 | 20 | 180 | 0.0 | 0.0 | 0.00 | 0.00 | 0.00 | 67 | 1001.0 |
| 20260507145632 | 20 | 180 | 0.0 | 0.0 | 0.00 | 0.00 | 0.00 | 67 | 1001.0 |
| 20260507144132 | 20 | 180 | 0.0 | 0.0 | 0.00 | 0.00 | 0.00 | 65 | 1002.0 |
| 20260507143617 | 20 | 180 | 0.0 | 0.0 | 0.00 | 0.00 | 0.00 | 64 | 1002.0 |
| 20260507142632 | 20 | 180 | 0.0 | 0.0 | 0.00 | 0.00 | 0.00 | 64 | 1002.0 |
| 20260507141132 | 20 | 225 | 0.0 | 0.0 | 0.00 | 0.00 | 0.00 | 63 | 1002.0 |
| 20260507140619 | 20 | 180 | 1.6 | 3.2 | 0.00 | 0.00 | 0.00 | 63 | 1002.0 |